Regional Weather Roundup
Issued by NWS Charleston, SC

Current Version | Previous Version | Graphics & Text | Print | Product List | Glossary On
Versions: 1 2 3 4 5 6 7 8 9 10 11 12 13 14 15 16 17 18 19 20 21 22 23 24 25 26 27 28 29 30 31 32 33 34 35 36 37 38 39 40 41 42 43 44 45 46 47 48 49 50
000
ASUS42 KCHS 211410
RWRCHS
REGIONAL WEATHER ROUNDUP
NATIONAL WEATHER SERVICE CHARLESTON SC
900 AM EST SUN DEC 21 2014

NOTE: "FAIR" INDICATES FEW OR NO CLOUDS BELOW 12,000 FEET WITH NO
SIGNIFICANT WEATHER AND/OR OBSTRUCTIONS TO VISIBILITY.

NOT ALL STATIONS ARE QUALITY CONTROLLED BY THE NATIONAL
WEATHER SERVICE. USE DATA WITH CAUTION...ESPECIALLY
DEWPOINT OBSERVATIONS.

SCZ027-030-031-034>040-042>050-211500-
...SOUTHEAST SOUTH CAROLINA...

CITY           SKY/WX    TMP DP  RH WIND       PRES   REMARKS
N CHARLESTON   LGT RAIN  45  42  89 NE6       30.23S
WATERFRONT PRK NOT AVBL
MOUNT PLEASANT CLOUDY    45  43  93 N6        30.23S FOG
PINOPOLIS        N/A     45  39  81 NE9       30.16S
MONCKS CORNER  FAIR      45  39  81 N5        30.24S
SUMMERVILLE    CLOUDY    45  43  93 N6        30.24S
BEAUFORT MCAS  CLOUDY    48  45  89 NE8       30.22R
BEAUFORT ARPT  CLOUDY    46  46 100 N9        30.21S
HILTON HEAD IS PTSUNNY   48  46  93 N9        30.22R FOG
WALTERBORO     CLOUDY    45 N/A N/A NE6       30.24R
ALLENDALE      CLOUDY    46  43  87 N6        30.23R

...SOUTHERN MIDLANDS AND PEE DEE...

CITY           SKY/WX    TMP DP  RH WIND       PRES   REMARKS
GEORGETOWN     NOT AVBL
KINGSTREE      NOT AVBL
ORANGEBURG     CLOUDY    43  37  79 NE9       30.25R
BARNWELL       CLOUDY    45  41  87 NE6       30.26R
AIKEN          CLOUDY    45  43  93 NE7       30.28R
MANNING        NOT AVBL
COLUMBIA       PTSUNNY   46  36  68 NE7       30.26S
SUMTER         PTSUNNY   42  35  76 NE8       30.27R
FLORENCE       CLOUDY    42  36  79 N7        30.28R
MYRTLE BEACH   PTSUNNY   43  36  75 NE10      30.27S
N MYRTLE BEACH LGT RAIN  42  35  76 N8        30.26R

$$

GAZ063-065-086>088-099>101-113>116-118-119-134>141-150-211500-
...SOUTHEAST GEORGIA...

CITY           SKY/WX    TMP DP  RH WIND       PRES   REMARKS
SAVANNAH ARPT  LGT RAIN  48  46  93 NE7       30.21R
HUNTER AAF     CLOUDY    49  48  98 NE8       30.17F
FORT STEWART   CLOUDY    50  48  93 NE8       30.18R
STATESBORO     CLOUDY    46  46 100 N5        30.21S FOG
SYLVANIA       LGT RAIN  46  46  99 NE7       30.22S
CLAXTON        CLOUDY    48  46  93 NE6       30.20S

...CSRA...CENTRAL AND FAR SOUTHEAST GEORGIA...

CITY           SKY/WX    TMP DP  RH WIND       PRES   REMARKS
THOMSON        CLOUDY    47  46  94 NE3       30.28R
AUGUSTA-BUSH   CLOUDY    47  41  80 NE7       30.24S
AUGUSTA-DANIEL CLOUDY    47  43  86 NE8       30.24R
SWAINSBORO     CLOUDY    50  50 100 E6        30.21S
VIDALIA        CLOUDY    48  48 100 NE7       30.19S
EASTMAN        CLOUDY    50  50 100 NE6       30.21S FOG
HAZLEHURST     CLOUDY    52  52 100 NE3       30.17R
ALMA           LGT RAIN  51  49  92 NE5       30.17R FOG
WAYCROSS       CLOUDY    55  55  98 NE8       30.17R
JESUP          CLOUDY    54  52  94 E8        30.18R
BAXLEY         DRIZZLE   52  50  93 NE9       30.17R
BRUNSWICK      CLOUDY    52  50  93 NE8       30.17S
SAINT SIMONS   CLOUDY    53  51  93 NE15      30.16S

$$

SCZ027-028-034-036>038-045-046-048>050-GAZ119-141-211500-
...LAKE AND SUPPLEMENTAL COASTAL OBSERVATIONS...

STATION/POSITION TIME  TEMP    WIND        PRES    WAVE   SWELL
                       AIR SEA DIR/SP/G            HT/PER HT/PER/DIR
                 (UTC) (F)     (DEG/KT/KT) (MB)    (FT/S) (FT/S/D)
UPR LAKE MARION  NOT AVBL
WINYAH BAY       1300   42     360/  6     1023.0S
LAKE MURRAY      1300   41      20/  2/  4 1024.0F
ACE BASIN NERRS  1300   46      20/  3     1022.0S
FORT PULASKI     1400   50 56   20/ 10/ 12 1023.0R
SAPELO ISLAND    1300   52      20/ 11     1021.0S

$$

ANZ835-935-AMZ111-154-330-350-352-354-370-450-454-472-211500-
...C-MAN AND BUOY OBSERVATIONS...

STATION/POSITION TIME  TEMP    WIND        PRES    WAVE   SWELL
                       AIR SEA DIR/SP/G            HT/PER HT/PER/DIR
                 (UTC) (F)     (DEG/KT/KT) (MB)    (FT/S) (FT/S/D)
BUOY 41004       1400   59 70   20/ 21/ 25 1021.4R   7/ 6
BUOY 41008       1400   55 59   30/ 21/ 23 1020.7R   6/ 6
FOLLY BEACH CMAN 1300   46      20/ 13/ 16 1023.8R
CAPERS NEARSHORE 1300   46      40/ 14/ 17   N/A
FRIPP NEARSHORE  NOT AVBL


STATION/POSITION TIME  TEMP    WIND        PRES    WAVE   SWELL
                       AIR SEA DIR/SP/G            HT/PER HT/PER/DIR
                 (UTC) (F)     (DEG/KT/KT) (MB)    (FT/S) (FT/S/D)
5E ST. MARYS GA  1400      62                N/A     5/ 6
FRYING PAN BUOY  1400   56 69   30/ 21/ 27 1023.4R   6/ 6
BUOY 41025       1400   52                 1025.0R   4/ 4
CAPE LOOKOUT NC  1300   45      20/ 13/ 17 1024.7R
BUOY 41002       1330   68 70   90/ 21/ 23 1020.6R   6/ 6   2/ 60/10
BUOY 41010       1400   75 77  190/ 10/ 12 1019.9R   3/ 8   2/ 60/ 8
ST AUGUSTINE FL  1400   62     350/ 16/ 17 1020.4R


$$



USA.gov is the U.S. government's official web portal to all federal, state and local government web resources and services.